• En España
  • Lista de países
  • Para 7 días
  • Temperatura del agua
  • Mapa Satelital
  • El tiempo en el mapa
  • Informadores
  • user-avatar
    Iniciar sesión

    Tiempo cada hora Benguela

    Hoy, 25 Noviembre, Sábado

    Tiempo Temperatura Precipitaciones Viento Presión Humedad
    00:00 +28°C° 0,1 mm 1 mps 759 mmHg 83%
    01:00 +27°C° 0 mm 1 mps 759 mmHg 84%
    02:00 +27°C° 0 mm 1 mps 759 mmHg 84%
    03:00 +27°C° 0 mm 1 mps 758 mmHg 84%
    04:00 +25°C° 0 mm 0 mps 758 mmHg 85%
    05:00 +25°C° 0 mm 0 mps 758 mmHg 83%
    06:00 +28°C° 0 mm 1 mps 759 mmHg 81%
    07:00 +28°C° 0 mm 1 mps 759 mmHg 79%
    08:00 +30°C° 0 mm 1 mps 759 mmHg 72%
    09:00 +32°C° 0 mm 2 mps 759 mmHg 65%
    10:00 +34°C° 0 mm 3 mps 759 mmHg 58%
    11:00 +35°C° 0,1 mm 3 mps 758 mmHg 58%
    12:00 +35°C° 0,1 mm 4 mps 758 mmHg 57%
    13:00 +35°C° 0,1 mm 4 mps 757 mmHg 56%
    14:00 +35°C° 0 mm 4 mps 757 mmHg 58%
    15:00 +34°C° 0 mm 4 mps 757 mmHg 60%
    16:00 +33°C° 0 mm 4 mps 756 mmHg 62%
    17:00 +31°C° 0 mm 3 mps 757 mmHg 68%
    18:00 +30°C° 0 mm 3 mps 757 mmHg 74%
    19:00 +28°C° 0 mm 3 mps 758 mmHg 80%
    20:00 +28°C° 0 mm 2 mps 758 mmHg 81%
    21:00 +28°C° 0 mm 2 mps 759 mmHg 82%
    22:00 +28°C° 0 mm 1 mps 759 mmHg 84%
    23:00 +28°C° 0 mm 1 mps 759 mmHg 84%

    Mañana, 26 Noviembre, Domingo

    Tiempo Temperatura Precipitaciones Viento Presión Humedad
    00:00 +27°C° 0 mm 1 mps 759 mmHg 84%
    01:00 +27°C° 0 mm 1 mps 759 mmHg 85%
    02:00 +27°C° 0 mm 1 mps 759 mmHg 86%
    03:00 +27°C° 0 mm 1 mps 759 mmHg 86%
    04:00 +25°C° 0 mm 0 mps 758 mmHg 87%
    05:00 +25°C° 0 mm 0 mps 759 mmHg 85%
    06:00 +28°C° 0 mm 1 mps 759 mmHg 83%
    07:00 +28°C° 0 mm 1 mps 759 mmHg 81%
    08:00 +30°C° 0 mm 1 mps 759 mmHg 73%
    09:00 +31°C° 0 mm 2 mps 759 mmHg 65%
    10:00 +34°C° 0 mm 3 mps 759 mmHg 57%
    11:00 +34°C° 0 mm 3 mps 759 mmHg 57%
    12:00 +35°C° 0 mm 4 mps 758 mmHg 56%
    13:00 +35°C° 0 mm 4 mps 758 mmHg 55%
    14:00 +34°C° 0 mm 4 mps 757 mmHg 58%
    15:00 +34°C° 0 mm 4 mps 757 mmHg 62%
    16:00 +33°C° 0 mm 4 mps 757 mmHg 65%
    17:00 +31°C° 0 mm 3 mps 758 mmHg 71%
    18:00 +29°C° 0 mm 3 mps 758 mmHg 77%
    19:00 +28°C° 0 mm 2 mps 759 mmHg 82%
    20:00 +28°C° 0 mm 2 mps 760 mmHg 83%
    21:00 +28°C° 0 mm 1 mps 760 mmHg 83%
    22:00 +28°C° 0 mm 1 mps 761 mmHg 83%
    23:00 +28°C° 0 mm 1 mps 761 mmHg 84%

    Pasado mañana, 27 Noviembre, Lunes

    Tiempo Temperatura Precipitaciones Viento Presión Humedad
    00:00 +27°C° 0 mm 1 mps 760 mmHg 85%
    01:00 +27°C° 0 mm 1 mps 760 mmHg 86%
    02:00 +27°C° 0 mm 1 mps 760 mmHg 87%
    03:00 +27°C° 0 mm 1 mps 759 mmHg 88%
    04:00 +27°C° 0 mm 1 mps 759 mmHg 89%
    05:00 +25°C° 0 mm 0 mps 759 mmHg 87%
    06:00 +25°C° 0 mm 0 mps 760 mmHg 85%
    07:00 +26°C° 0 mm 0 mps 760 mmHg 83%
    08:00 +29°C° 0 mm 1 mps 760 mmHg 77%
    09:00 +30°C° 0 mm 1 mps 760 mmHg 70%
    10:00 +32°C° 0 mm 2 mps 761 mmHg 63%
    11:00 +33°C° 0 mm 3 mps 760 mmHg 63%
    12:00 +33°C° 0 mm 3 mps 759 mmHg 62%
    13:00 +33°C° 0 mm 4 mps 759 mmHg 61%
    14:00 +33°C° 0 mm 4 mps 758 mmHg 63%
    15:00 +33°C° 0 mm 4 mps 758 mmHg 65%
    16:00 +32°C° 0 mm 4 mps 758 mmHg 67%
    17:00 +30°C° 0 mm 3 mps 758 mmHg 72%
    18:00 +29°C° 0 mm 3 mps 759 mmHg 78%
    19:00 +28°C° 0 mm 2 mps 759 mmHg 83%
    20:00 +28°C° 0 mm 2 mps 760 mmHg 83%
    21:00 +28°C° 0 mm 1 mps 760 mmHg 83%
    22:00 +28°C° 0 mm 1 mps 761 mmHg 84%
    23:00 +28°C° 0 mm 1 mps 760 mmHg 84%

    28 Noviembre, Martes

    Tiempo Temperatura Precipitaciones Viento Presión Humedad
    00:00 +28°C° 0 mm 1 mps 760 mmHg 84%
    01:00 +28°C° 0 mm 1 mps 759 mmHg 84%
    02:00 +27°C° 0 mm 1 mps 759 mmHg 84%
    03:00 +27°C° 0 mm 1 mps 759 mmHg 85%
    04:00 +27°C° 0 mm 1 mps 758 mmHg 85%
    05:00 +28°C° 0 mm 1 mps 759 mmHg 83%
    06:00 +28°C° 0 mm 1 mps 759 mmHg 82%
    07:00 +28°C° 0 mm 1 mps 760 mmHg 80%
    08:00 +30°C° 0 mm 2 mps 760 mmHg 72%
    09:00 +32°C° 0 mm 2 mps 760 mmHg 63%
    10:00 +35°C° 0 mm 3 mps 760 mmHg 54%
    11:00 +36°C° 0 mm 3 mps 759 mmHg 53%
    12:00 +36°C° 0 mm 4 mps 758 mmHg 51%
    13:00 +37°C° 0 mm 5 mps 757 mmHg 50%
    14:00 +35°C° 0 mm 5 mps 757 mmHg 54%
    15:00 +34°C° 0 mm 4 mps 757 mmHg 58%
    16:00 +33°C° 0 mm 4 mps 756 mmHg 62%
    17:00 +31°C° 0 mm 3 mps 757 mmHg 67%
    18:00 +30°C° 0 mm 3 mps 758 mmHg 71%
    19:00 +28°C° 0 mm 2 mps 759 mmHg 76%
    20:00 +28°C° 0 mm 2 mps 759 mmHg 77%
    21:00 +28°C° 0 mm 2 mps 759 mmHg 78%
    22:00 +28°C° 0 mm 2 mps 760 mmHg 79%
    23:00 +28°C° 0 mm 2 mps 760 mmHg 81%

    29 Noviembre, Miércoles

    Tiempo Temperatura Precipitaciones Viento Presión Humedad
    00:00 +27°C° 0 mm 2 mps 759 mmHg 83%
    01:00 +27°C° 0 mm 2 mps 759 mmHg 84%
    02:00 +27°C° 0 mm 2 mps 759 mmHg 85%
    03:00 +26°C° 0 mm 2 mps 758 mmHg 86%
    04:00 +26°C° 0 mm 2 mps 758 mmHg 87%
    05:00 +27°C° 0 mm 2 mps 759 mmHg 84%
    06:00 +28°C° 0 mm 2 mps 759 mmHg 80%
    07:00 +28°C° 0 mm 2 mps 760 mmHg 76%
    08:00 +31°C° 0 mm 2 mps 760 mmHg 65%
    09:00 +34°C° 0 mm 3 mps 759 mmHg 55%
    10:00 +36°C° 0 mm 3 mps 759 mmHg 44%
    11:00 +36°C° 0 mm 4 mps 758 mmHg 44%
    12:00 +37°C° 0 mm 4 mps 758 mmHg 45%
    13:00 +37°C° 0 mm 5 mps 757 mmHg 45%
    14:00 +36°C° 0 mm 5 mps 757 mmHg 49%
    15:00 +35°C° 0 mm 4 mps 756 mmHg 53%
    16:00 +34°C° 0 mm 4 mps 756 mmHg 57%
    17:00 +32°C° 0 mm 4 mps 757 mmHg 62%
    18:00 +30°C° 0 mm 4 mps 758 mmHg 67%
    19:00 +28°C° 0 mm 3 mps 758 mmHg 72%
    20:00 +28°C° 0 mm 3 mps 759 mmHg 73%
    21:00 +28°C° 0 mm 3 mps 759 mmHg 74%
    22:00 +27°C° 0 mm 2 mps 760 mmHg 75%
    23:00 +27°C° 0 mm 2 mps 760 mmHg 77%

    30 Noviembre, Jueves

    Tiempo Temperatura Precipitaciones Viento Presión Humedad
    00:00 +27°C° 0 mm 2 mps 760 mmHg 78%
    01:00 +26°C° 0 mm 2 mps 759 mmHg 80%
    02:00 +26°C° 0 mm 2 mps 759 mmHg 80%
    03:00 +26°C° 0 mm 2 mps 759 mmHg 81%
    04:00 +26°C° 0 mm 1 mps 759 mmHg 82%
    05:00 +26°C° 0 mm 1 mps 759 mmHg 80%
    06:00 +27°C° 0 mm 1 mps 760 mmHg 78%
    07:00 +27°C° 0 mm 1 mps 760 mmHg 76%
    08:00 +27°C° 0,1 mm 1 mps 760 mmHg 73%
    09:00 +28°C° 0,1 mm 1 mps 760 mmHg 69%
    10:00 +29°C° 0,1 mm 1 mps 760 mmHg 66%
    11:00 +30°C° 0 mm 2 mps 759 mmHg 57%
    12:00 +33°C° 0 mm 3 mps 759 mmHg 49%
    13:00 +35°C° 0 mm 4 mps 758 mmHg 41%
    14:00 +34°C° 0 mm 4 mps 758 mmHg 44%
    15:00 +34°C° 0 mm 4 mps 758 mmHg 46%
    16:00 +33°C° 0 mm 4 mps 757 mmHg 48%
    17:00 +32°C° 0 mm 4 mps 758 mmHg 54%
    18:00 +29°C° 0 mm 3 mps 759 mmHg 60%
    19:00 +28°C° 0 mm 2 mps 759 mmHg 65%
    20:00 +28°C° 0 mm 2 mps 760 mmHg 66%
    21:00 +27°C° 0 mm 2 mps 760 mmHg 67%
    22:00 +27°C° 0 mm 2 mps 760 mmHg 68%
    23:00 +27°C° 0 mm 2 mps 760 mmHg 69%
    Mostrar más